Date String (YYYY-MM-DD hh:mm:ss) UTC,Instrument flags,Ambient pressure (hPa),Sample flow (lpm),Bypass flow (lpm),Sample temperature (°C),Ambient temperature (°C),ASC tube jacket temperature (°C),LED temperature (°C),Box temperature (°C),Sample RH (%),Span deviation,Mass concentration (μg/m³),Mass concentration (μg/m³),Mass concentration (μg/m³)
DateTimeUTC,F1_M11,P_M11,Q1_M11,Q2_M11,T1_M11,T2_M11,T3_M11,T4_M11,T5_M11,U1_M11,ZSPAN_M11,X0_M11,X2_M11,X1_M11
2022-03-23 18:00:00,,0827.1,5.00,0.00,21.3,20.5,00.0,30.4,22.9,06.0,0000.0,0007.42,0001.37,0000.62
2022-03-23 18:01:00,,0827.1,5.00,0.00,21.3,20.5,00.0,30.4,22.9,06.0,0000.0,0007.63,0001.34,0000.61
2022-03-23 18:02:00,,0827.1,5.00,0.00,21.3,20.6,00.0,30.4,22.9,06.1,0000.0,0007.69,0001.34,0000.61
2022-03-23 18:03:00,,0827.1,5.00,0.00,21.3,20.7,00.0,30.4,23.0,06.0,0000.0,0006.80,0001.35,0000.62
2022-03-23 18:04:00,,0827.0,4.99,0.00,21.3,20.7,00.0,30.4,23.0,06.1,0000.0,0006.53,0001.34,0000.60
2022-03-23 18:05:00,,0826.9,5.00,0.00,21.3,20.8,00.0,30.4,23.0,06.2,0000.0,0006.30,0001.30,0000.59
2022-03-23 18:06:00,,0827.1,5.01,0.00,21.3,20.8,00.0,30.4,23.0,06.2,0000.0,0006.81,0001.31,0000.58
2022-03-23 18:07:00,,0827.0,4.99,0.00,21.3,20.8,00.0,30.4,23.0,06.2,0000.0,0006.97,0001.32,0000.58
2022-03-23 18:08:00,,0827.1,4.99,0.00,21.4,20.9,00.0,30.4,23.1,06.3,0000.0,0005.53,0001.13,0000.57
2022-03-23 18:09:00,,0827.2,5.01,0.00,21.4,20.9,00.0,30.4,23.1,06.3,0000.0,0005.47,0001.10,0000.57
2022-03-23 18:10:00,,0826.9,5.00,0.00,21.4,20.9,00.0,30.4,23.1,06.3,0000.0,0005.61,0001.14,0000.59
2022-03-23 18:11:00,,0827.1,5.00,0.00,21.4,20.9,00.0,30.4,23.1,06.2,0000.0,0005.79,0001.18,0000.59
2022-03-23 18:12:00,,0827.2,4.99,0.00,21.4,20.9,00.0,30.4,23.1,06.2,0000.0,0005.44,0001.20,0000.60
2022-03-23 18:13:00,,0827.4,5.00,0.00,21.4,21.0,00.0,30.4,23.2,06.3,0000.0,0005.31,0001.23,0000.60
2022-03-23 18:14:00,,0827.2,5.00,0.00,21.5,21.0,00.0,30.4,23.2,06.3,0000.0,0005.57,0001.23,0000.60
2022-03-23 18:15:00,,0827.1,5.00,0.00,21.5,21.0,00.0,30.4,23.3,06.3,0000.0,0005.82,0001.23,0000.60
2022-03-23 18:16:00,,0827.3,4.99,0.00,21.5,21.0,00.0,30.4,23.3,06.3,0000.0,0005.89,0001.26,0000.62
2022-03-23 18:17:00,,0827.2,5.01,0.00,21.6,21.1,00.0,30.5,23.3,06.3,0000.0,0005.67,0001.29,0000.63
2022-03-23 18:18:00,,0827.3,5.01,0.00,21.6,21.1,00.0,30.5,23.4,06.3,0000.0,0005.03,0001.28,0000.63
2022-03-23 18:19:00,,0827.3,4.98,0.00,21.6,21.1,00.0,30.5,23.4,06.3,0000.0,0004.53,0001.27,0000.62
2022-03-23 18:20:00,,0827.3,5.01,0.00,21.6,21.1,00.0,30.5,23.4,06.3,0000.0,0004.13,0001.25,0000.62
2022-03-23 18:21:00,,0827.1,5.01,0.00,21.7,21.1,00.0,30.5,23.5,06.4,0000.0,0003.99,0001.24,0000.62
2022-03-23 18:22:00,,0827.3,5.00,0.00,21.7,21.1,00.0,30.5,23.5,06.5,0000.0,0003.87,0001.20,0000.61
2022-03-23 18:23:00,,0827.0,4.99,0.00,21.7,21.2,00.0,30.6,23.5,06.6,0000.0,0003.92,0001.21,0000.61
2022-03-23 18:24:00,,0827.0,5.01,0.00,21.7,21.2,00.0,30.6,23.6,06.4,0000.0,0003.90,0001.19,0000.62
2022-03-23 18:25:00,,0827.0,5.00,0.00,21.8,21.2,00.0,30.6,23.6,06.3,0000.0,0003.52,0001.14,0000.61
2022-03-23 18:26:00,,0827.1,5.01,0.00,21.8,21.2,00.0,30.6,23.6,06.3,0000.0,0003.24,0001.14,0000.61
2022-03-23 18:27:00,,0827.1,5.01,0.00,21.8,21.2,00.0,30.6,23.6,06.3,0000.0,0003.18,0001.12,0000.60
2022-03-23 18:28:00,,0827.2,4.98,0.00,21.8,21.2,00.0,30.6,23.5,06.3,0000.0,0003.09,0001.11,0000.61
2022-03-23 18:29:00,,0827.2,5.01,0.00,21.8,21.3,00.0,30.7,23.5,06.3,0000.0,0002.37,0001.06,0000.61
2022-03-23 18:30:00,,0827.1,5.01,0.00,21.8,21.3,00.0,30.7,23.6,06.3,0000.0,0002.02,0001.05,0000.61
2022-03-23 18:31:00,,0827.0,4.99,0.00,21.8,21.3,00.0,30.7,23.6,06.3,0000.0,0001.93,0001.06,0000.61
2022-03-23 18:32:00,,0827.0,5.00,0.00,21.8,21.3,00.0,30.7,23.6,06.3,0000.0,0001.86,0001.04,0000.61
2022-03-23 18:33:00,,0827.0,5.01,0.00,21.9,21.3,00.0,30.7,23.6,06.4,0000.0,0001.65,0000.97,0000.60
2022-03-23 18:34:00,,0827.1,5.00,0.00,21.9,21.3,00.0,30.7,23.7,06.5,0000.0,0001.54,0000.96,0000.60
2022-03-23 18:35:00,,0826.9,5.00,0.00,21.9,21.3,00.0,30.8,23.7,06.6,0000.0,0001.39,0000.92,0000.58
2022-03-23 18:36:00,,0827.0,5.01,0.00,21.9,21.3,00.0,30.8,23.7,06.5,0000.0,0001.50,0000.96,0000.60
2022-03-23 18:37:00,,0827.0,4.98,0.00,21.9,21.4,00.0,30.8,23.7,06.5,0000.0,0001.63,0001.00,0000.60
2022-03-23 18:38:00,,0827.0,5.00,0.00,21.9,21.4,00.0,30.8,23.7,06.4,0000.0,0001.62,0000.98,0000.61
2022-03-23 18:39:00,,0827.0,5.01,0.00,21.9,21.4,00.0,30.8,23.7,06.3,0000.0,0001.60,0000.98,0000.61
2022-03-23 18:40:00,,0827.0,5.00,0.00,21.9,21.4,00.0,30.8,23.7,06.2,0000.0,0001.60,0000.98,0000.61
2022-03-23 18:41:00,,0827.0,5.00,0.00,21.9,21.3,00.0,30.8,23.7,06.3,0000.0,0001.80,0001.02,0000.62
2022-03-23 18:42:00,,0827.0,5.00,0.00,21.9,21.3,00.0,30.8,23.7,06.4,0000.0,0001.80,0001.01,0000.62
2022-03-23 18:43:00,,0827.0,5.00,0.00,21.9,21.3,00.0,30.9,23.7,06.3,0000.0,0001.97,0001.03,0000.63
2022-03-23 18:44:00,,0827.0,5.00,0.00,22.0,21.3,00.0,30.9,23.7,06.3,0000.0,0002.02,0001.05,0000.63
2022-03-23 18:45:00,,0827.0,5.00,0.00,22.0,21.4,00.0,30.9,23.8,06.5,0000.0,0002.00,0001.03,0000.63
2022-03-23 18:46:00,,0826.9,5.00,0.00,22.0,21.4,00.0,30.9,23.8,06.4,0000.0,0002.06,0001.05,0000.63
2022-03-23 18:47:00,,0826.9,4.99,0.00,22.0,21.4,00.0,30.9,23.8,06.2,0000.0,0001.99,0001.00,0000.62
2022-03-23 18:48:00,,0826.9,5.01,0.00,22.0,21.4,00.0,30.9,23.8,06.2,0000.0,0002.02,0000.97,0000.61
2022-03-23 18:49:00,,0826.9,5.01,0.00,22.0,21.5,00.0,30.9,23.9,06.2,0000.0,0002.07,0000.98,0000.61
2022-03-23 18:50:00,,0826.9,4.98,0.00,22.1,21.5,00.0,30.9,23.9,06.2,0000.0,0002.17,0001.01,0000.60
2022-03-23 18:51:00,,0826.9,5.00,0.00,22.1,21.5,00.0,31.0,23.9,06.2,0000.0,0002.20,0001.02,0000.60
2022-03-23 18:52:00,,0826.9,5.00,0.00,22.1,21.5,00.0,31.0,23.9,06.1,0000.0,0002.16,0001.03,0000.60
2022-03-23 18:53:00,,0826.9,5.01,0.00,22.1,21.5,00.0,31.0,23.9,06.2,0000.0,0002.30,0001.07,0000.59
2022-03-23 18:54:00,,0826.8,5.00,0.00,22.1,21.5,00.0,31.0,24.0,06.3,0000.0,0005.25,0001.44,0000.61
2022-03-23 18:55:00,,0826.7,5.00,0.00,22.2,21.6,00.0,31.0,24.0,06.3,0000.0,0006.63,0001.66,0000.63
2022-03-23 18:56:00,,0826.8,5.00,0.00,22.2,21.6,00.0,31.0,23.9,06.3,0000.0,0007.10,0001.73,0000.63
2022-03-23 18:57:00,,0826.8,5.00,0.00,22.2,21.6,00.0,31.0,24.0,06.2,0000.0,0007.16,0001.74,0000.64
2022-03-23 18:58:00,,0826.8,5.01,0.00,22.2,21.6,00.0,31.1,24.0,06.2,0000.0,0007.15,0001.74,0000.64
2022-03-23 18:59:00,,0826.9,5.00,0.00,22.2,21.6,00.0,31.1,24.0,06.0,0000.0,0007.08,0001.75,0000.64
